Content
SEND FEEDBACK

Daily
Averages
Monthly
Summary
United States of America

UMATAC, GUAM


Home > North America > United States > Guam
Elevation: 58 meters     Latitude: 13 17N     Longitude: 144 40E

WEATHER
 
SELECT A DAY
Number of Records: 342,579;   Date Range: 1/1/95 - 9/18/14
 
SHARE

PRINT THIS DATA

[ ← Previous Day ]
WEATHER ALMANAC - 21 APRIL, 2013
[ Next Day → ]
[ °F ]   °C
Weather ElementAverageHighLow
Temperature26.8 °C29.3 °C (11:55 am)25 °C (5:32 am)
Dewpoint22.7 °C23.1 °C (10:55 am)21.2 °C (11:55 pm)
Humidity78.1 %85 % (5:55 am)69 % (9:55 am)
Barometer1010.8 hPa1012.5 hPa (8:55 am)1009.5 hPa (4:02 pm)
Wind Speed15.8 km/h20.4 km/h (12:08 am)
Weather ElementAverage
Visibility16.1 km
Wind DirectionE (86 °)

Weather ElementTotal
Precipitation---
Cooling Degree Days8.8 (Base 18.3)
Growing Degree Days17.2 (Base 10)
Averaged from 63 records on 21 April, 2013
WEATHER CONDITIONS BREAKOUT
WIND DIRECTION BREAKOUT
WEATHER BY HOUR - 21 APRIL, 2013
[ °F ]   °C
Local TimeTemperatureDewpointHumidityBarometerVisibilityWind DirectionWind SpeedGust SpeedPrecipitationEventsConditions
12:08 AM26 °C23 °C83 %1011.5 hPa16.1 kmEast (80°)20.4 km/hMostly Cloudy
12:55 AM26 °C22.9 °C83 %1011.2 hPa16.1 kmEast (80°)18.5 km/hOvercast
1:24 AM26 °C23 °C83 %1011.2 hPa16.1 kmEast (80°)16.7 km/hOvercast
1:46 AM26 °C23 °C83 %1010.8 hPa16.1 kmENE (70°)18.5 km/hMostly Cloudy
1:55 AM25.5 °C22.7 °C84 %1010.8 hPa16.1 kmENE (70°)16.7 km/hScattered Clouds
2:18 AM26 °C23 °C83 %1010.8 hPa16.1 kmENE (70°)16.7 km/hMostly Cloudy
2:28 AM26 °C23 °C83 %1010.8 hPa16.1 kmEast (90°)16.7 km/hScattered Clouds
2:31 AM26 °C23 °C83 %1010.8 hPa16.1 kmEast (80°)14.8 km/hMostly Cloudy
2:42 AM26 °C22 °C78 %1010.5 hPa16.1 kmEast (80°)18.5 km/hMostly Cloudy
2:55 AM25.6 °C22.3 °C82 %1010.5 hPa16.1 kmEast (80°)16.7 km/hScattered Clouds
3:55 AM25.5 °C22.3 °C82 %1010.5 hPa16.1 kmEast (80°)14.8 km/hPartly Cloudy
4:55 AM25.2 °C22.1 °C83 %1010.8 hPa16.1 kmEast (80°)16.7 km/hPartly Cloudy
5:14 AM26 °C23 °C83 %1010.8 hPa16.1 kmEast (100°)14.8 km/hMostly Cloudy
5:19 AM26 °C23 °C83 %1011.2 hPa16.1 kmEast (90°)16.7 km/hRainLight Rain
5:32 AM25 °C22 °C83 %1011.2 hPa16.1 kmEast (90°)14.8 km/hMostly Cloudy
5:34 AM25 °C22 °C83 %1011.2 hPa16.1 kmEast (100°)14.8 km/hScattered Clouds
5:55 AM25.2 °C22.5 °C85 %1011.2 hPa16.1 kmEast (90°)16.7 km/h0 mmPartly Cloudy
6:55 AM26 °C21.8 °C78 %1011.9 hPa16.1 kmEast (90°)14.8 km/hClear
7:32 AM26 °C22 °C78 %1012.2 hPa16.1 kmEast (80°)18.5 km/hMostly Cloudy
7:48 AM27 °C23 °C79 %1012.2 hPa16.1 kmEast (100°)14.8 km/hScattered Clouds
7:50 AM27 °C23 °C79 %1012.2 hPa16.1 kmEast (90°)16.7 km/hMostly Cloudy
7:54 AM27 °C23 °C79 %1012.2 hPa16.1 kmEast (90°)18.5 km/hScattered Clouds
7:55 AM27 °C22.6 °C77 %1012.2 hPa16.1 kmEast (90°)16.7 km/hScattered Clouds
8:33 AM28 °C23 °C74 %1012.2 hPa16.1 kmEast (90°)13 km/hMostly Cloudy
8:36 AM28 °C23 °C74 %1012.2 hPa16.1 kmEast (90°)16.7 km/hMostly Cloudy
8:55 AM28.3 °C22.7 °C71 %1012.5 hPa16.1 kmEast (80°)18.5 km/hPartly Cloudy
9:55 AM29 °C22.8 °C69 %1012.2 hPa16.1 kmEast (90°)16.7 km/hPartly Cloudy
10:55 AM29 °C23.1 °C70 %1012.2 hPa16.1 kmEast (80°)20.4 km/hClear
11:55 AM29.3 °C23.1 °C69 %1011.5 hPa16.1 kmEast (100°)20.4 km/hScattered Clouds
12:47 PM29 °C23 °C70 %1010.8 hPa16.1 kmEast (80°)16.7 km/hMostly Cloudy
12:55 PM28.7 °C23.1 °C72 %1010.8 hPa16.1 kmEast (100°)11.1 km/hMostly Cloudy
1:55 PM28.6 °C22.9 °C71 %1010.2 hPa16.1 kmEast (100°)16.7 km/hMostly Cloudy
2:24 PM28 °C23 °C74 %1009.8 hPa16.1 kmEast (80°)14.8 km/hScattered Clouds
2:55 PM28.5 °C22.9 °C71 %1009.8 hPa16.1 kmEast (100°)14.8 km/hScattered Clouds
3:55 PM28 °C22.5 °C72 %1009.8 hPa16.1 kmEast (80°)16.7 km/hScattered Clouds
4:02 PM28 °C23 °C74 %1009.5 hPa16.1 kmVariable11.1 km/hMostly Cloudy
4:04 PM28 °C23 °C74 %1009.5 hPa16.1 kmEast (80°)13 km/hScattered Clouds
4:15 PM28 °C23 °C74 %1009.5 hPa16.1 kmEast (90°)11.1 km/hMostly Cloudy
4:27 PM28 °C23 °C74 %1009.5 hPa16.1 kmEast (90°)11.1 km/hScattered Clouds
4:30 PM28 °C23 °C74 %1009.5 hPa16.1 kmEast (80°)13 km/hMostly Cloudy
4:33 PM28 °C23 °C74 %1009.5 hPa16.1 kmENE (70°)13 km/hScattered Clouds
4:39 PM27 °C23 °C79 %1009.5 hPa16.1 kmEast (80°)11.1 km/hMostly Cloudy
4:42 PM28 °C23 °C74 %1009.5 hPa16.1 kmEast (90°)11.1 km/hScattered Clouds
4:55 PM27.5 °C22.9 °C76 %1009.8 hPa16.1 kmENE (70°)14.8 km/hScattered Clouds
5:18 PM27 °C23 °C79 %1009.8 hPa16.1 kmESE (110°)13 km/hMostly Cloudy
5:48 PM27 °C22 °C74 %1009.8 hPa16.1 kmEast (90°)14.8 km/hScattered Clouds
5:55 PM26.7 °C22.4 °C77 %1010.2 hPa16.1 kmEast (100°)14.8 km/hPartly Cloudy
6:47 PM27 °C23 °C79 %1010.8 hPa16.1 kmEast (100°)16.7 km/hMostly Cloudy
6:49 PM27 °C23 °C79 %1010.8 hPa16.1 kmEast (100°)14.8 km/hScattered Clouds
6:55 PM26.5 °C22.7 °C80 %1010.8 hPa16.1 kmEast (100°)18.5 km/hScattered Clouds
6:59 PM27 °C22 °C74 %1010.8 hPa16.1 kmEast (90°)16.7 km/hMostly Cloudy
7:31 PM26 °C23 °C83 %1011.2 hPa16.1 kmEast (90°)16.7 km/hMostly Cloudy
7:32 PM26 °C23 °C83 %1011.2 hPa16.1 kmEast (90°)16.7 km/hMostly Cloudy
7:41 PM26 °C22 °C78 %1011.2 hPa16.1 kmEast (90°)14.8 km/hScattered Clouds
7:55 PM26.1 °C22.5 °C80 %1011.5 hPa16.1 kmEast (90°)14.8 km/hPartly Cloudy
8:55 PM26 °C22.2 °C79 %1011.9 hPa16.1 kmEast (90°)14.8 km/hPartly Cloudy
9:09 PM26 °C23 °C83 %1011.9 hPa16.1 kmEast (80°)14.8 km/hRainLight Rain
9:14 PM26 °C23 °C83 %1011.9 hPa16.1 kmEast (90°)18.5 km/hRainLight Rain
9:21 PM26 °C23 °C83 %1011.9 hPa16.1 kmEast (100°)14.8 km/hMostly Cloudy
9:35 PM26 °C22 °C78 %1011.9 hPa16.1 kmEast (80°)16.7 km/hScattered Clouds
9:55 PM25.8 °C22.5 °C82 %1012.2 hPa16.1 kmEast (90°)18.5 km/h0 mmScattered Clouds
10:55 PM25.7 °C22.2 °C81 %1012.5 hPa16.1 kmEast (90°)14.8 km/hPartly Cloudy
11:55 PM25.3 °C21.2 °C78 %1012.2 hPa16.1 kmEast (80°)16.7 km/hScattered Clouds
Hourly data recorded from PGUA, located 0 kilometers away from Umatac, Guam







STORIES FROM OUR PARTNERS